Regional Weather Roundup
Issued by NWS Bismarck, ND

Home | Current Version | Previous Version | Text Only | Print | Product List | Glossary On
Versions: 1 2 3 4 5 6 7 8 9 10 11 12 13 14 15 16 17 18 19 20 21 22 23 24 25 26 27 28 29 30 31 32 33 34 35 36 37 38 39 40 41 42 43 44 45 46 47 48 49 50
000
ASUS43 KBIS 240010
RWRBIS

NWR BROADCAST TEXT
NATIONAL WEATHER SERVICE BISMARCK ND
700 PM CDT TUE MAY 23 2017

NOTE: "FAIR" INDICATES FEW OR NO CLOUDS BELOW 12,000 FEET WITH NO
SIGNIFICANT WEATHER AND/OR OBSTRUCTIONS TO VISIBILITY.


CITY           SKY/WX    TMP DP  RH WIND       PRES   REMARKS
WILLISTON      FAIR      71  33  24 SE9       29.98F
MINOT          FAIR      67  32  27 E8        29.98F
MINOT AFB      FAIR      67  32  27 CALM      29.97F
BISMARCK       FAIR      65  36  34 E15       30.00F
DICKINSON      FAIR      63  28  26 NE5       30.01F
GARRISON         N/A     65  32  29 E7        29.99F
HETTINGER ARPT FAIR      63  32  31 NE9       30.03F
JAMESTOWN      CLOUDY    57  41  55 NE15      29.97F
HAZEN          FAIR      66  32  28 MISG      30.01F
LINTON         FAIR      61  43  51 N13G22    30.02S
MANDAN         FAIR      63  36  36 E8G16     30.00F
STANLEY        FAIR      64  34  32 SE8       30.02F
TIOGA          FAIR      66  30  26 S10G17    30.00F
WATFORD CITY   FAIR      66  32  28 SE7       29.99F
$$

CITY           SKY/WX    TMP DP  RH WIND       PRES   REMARKS
GRAND FORKS    CLOUDY    63  43  48 E12       29.96S
GRAND FORKS AF FAIR      62  40  44 E9        29.96F
DEVILS LAKE    PTSUNNY   61  38  42 NE8       29.99F
FARGO          PTSUNNY   58  43  57 N14       29.94S
CAVALIER       FAIR      66  36  32 NE12      29.95F
GRAFTON        FAIR      63  39  42 E12       29.98S
GWINNER        MOCLDY    57  45  62 MISG      29.95S
LANGDON        FAIR      64  37  36 NE9G17    29.99S
ROLLA          FAIR      64  30  27 E9        30.00F
$$

CITY           SKY/WX    TMP DP  RH WIND       PRES   REMARKS
ABERDEEN       CLOUDY    56  40  55 N17       29.96F
MOBRIDGE       PTSUNNY   63  36  36 N15       29.97F
BUFFALO          N/A     65  34  31 NE9       29.97F
RAPID CITY     FAIR      63  34  33 N15       30.03F
GLASGOW        FAIR      71  30  21 S17       29.90F
SIDNEY         FAIR      71  29  21 S6        29.96F
WOLF POINT     FAIR      74  29  19 SW12      29.92F
GLENDIVE       FAIR      71  30  21 S9        29.98F
MILES CITY     FAIR      68  31  25 S10       29.98F
BAKER          FAIR      64  30  27 SW5       30.02F
$$

CITY           SKY/WX    TMP DP  RH WIND       PRES   REMARKS
BILLINGS       PTSUNNY   71  40  32 SE12      29.95F
GREAT FALLS    FAIR      80  46  30 SW13      29.81F
REGINA         PTSUNNY   72  32  23 S13G21    29.86F
ESTEVAN        CLOUDY    68  34  28 SE12G18   29.95F
$$




USA.gov is the U.S. government's official web portal to all federal, state and local government web resources and services.